Weather History for Grand Junction, CO

Change the Weather History Date:

Thursday, January 10, 2013

  Actual Average Record
Temperature  
Mean Temperature 23 °F 27 °F  
Max Temperature 42 °F 37 °F 55 °F (1956)
Min Temperature 4 °F 16 °F -17 °F (1925)
Degree Days  
Heating Degree Days 42 38  
Month to date heating degree days 551 384  
Since 1 July heating degree days 2831 2743  
Cooling Degree Days 0 0  
Month to date cooling degree days 0 0  
Year to date cooling degree days 0 0  
Moisture  
Dew Point 17 °F    
Average Humidity 78    
Maximum Humidity 100    
Minimum Humidity 55    
Precipitation  
Precipitation T in 0.02 in 0.42 in (1949)
Month to date precipitation 0.01 0.20  
Year to date precipitation 0.01 0.20  
Snow  
Snow 0.00 in 0.20 in 4.10 in (1949)
Month to date snowfall 0.1 1.9  
Since 1 July snowfall 13.1 9.3  
Snow Depth 3.00 in    
Sea Level Pressure  
Sea Level Pressure 29.91 in    
Wind  
Wind Speed 9 mph (ESE)    
Max Wind Speed 31 mph    
Max Gust Speed 40 mph    
Visibility 10 miles    
Events Rain    
T = Trace of Precipitation, MM = Missing Value Source: NWS Daily Summary

Daily Weather History Graph

Daily Weather History Graph

Search for Another Location

Airport:

Trip Planner

Search our weather history database for the weather conditions in past years. The results will help you decide how hot, cold, wet, or windy it might be!

Date:

Astronomy

Jan. 10, 2013 Rise Set
Actual Time 7:33 AM MST 5:10 PM MST
Civil Twilight 7:03 AM MST 5:40 PM MST
Nautical Twilight 6:30 AM MST 6:13 PM MST
Astronomical Twilight 5:58 AM MST 6:45 PM MST
Moon 6:15 AM MST (1/10) 4:22 PM MST (1/10)
Length of Visible Light 10h 36m
Length of Day
9h 37m
Waning Crescent, 2% of the Moon is Illuminated
Jan 10
Waning Crescent
Jan 11
New
Jan 18
First Quarter
Jan 26
Full
Feb 3
Last Quarter

Hourly Weather History & Observations

Time (MST) Temp. Windchill Dew Point Humidity Pressure Visibility Wind Dir Wind Speed Gust Speed Precip Events Conditions
12:53 AM 5.0 °F -2.1 °F 3.9 °F 95% 30.26 in 10.0 mi East 3.5 mph - N/A   Clear
1:53 AM 9.0 °F -0.9 °F 7.0 °F 92% 30.21 in 9.0 mi East 5.8 mph - N/A   Clear
2:53 AM 8.1 °F - 6.1 °F 92% 30.20 in 9.0 mi Calm Calm - N/A   Clear
3:53 AM 10.0 °F - 8.1 °F 92% 30.16 in 8.0 mi Calm Calm - N/A   Clear
4:53 AM 10.9 °F 1.4 °F 9.0 °F 92% 30.15 in 9.0 mi ENE 5.8 mph - N/A   Clear
5:53 AM 10.9 °F - 10.0 °F 96% 30.13 in 8.0 mi Calm Calm - N/A   Clear
6:53 AM 8.1 °F -0.5 °F 6.1 °F 92% 30.13 in 7.0 mi NW 4.6 mph - N/A   Clear
7:53 AM 10.0 °F 3.6 °F 8.1 °F 92% 30.11 in 10.0 mi Variable 3.5 mph - N/A   Clear
8:53 AM 12.9 °F 6.9 °F 10.9 °F 92% 30.06 in 10.0 mi NW 3.5 mph - N/A   Clear
9:53 AM 16.0 °F 7.4 °F 12.9 °F 88% 30.06 in 10.0 mi Variable 5.8 mph - N/A   Clear
10:53 AM 16.0 °F 10.4 °F 12.9 °F 88% 30.06 in 10.0 mi NW 3.5 mph - N/A   Clear
11:53 AM 19.9 °F - 15.1 °F 81% 29.98 in 10.0 mi Calm Calm - N/A   Clear
12:53 PM 21.0 °F 16.2 °F 16.0 °F 81% 29.93 in 10.0 mi East 3.5 mph - N/A   Overcast
1:53 PM 21.9 °F - 18.0 °F 85% 29.88 in 10.0 mi Calm Calm - N/A   Overcast
2:53 PM 24.1 °F - 18.0 °F 77% 29.86 in 10.0 mi Calm Calm - N/A   Overcast
3:53 PM 28.0 °F 15.3 °F 19.9 °F 72% 29.80 in 10.0 mi ESE 18.4 mph - N/A   Mostly Cloudy
4:53 PM 37.0 °F 25.9 °F 27.0 °F 67% 29.73 in 10.0 mi ESE 23.0 mph 34.5 mph N/A   Clear
5:53 PM 41.0 °F 30.9 °F 26.1 °F 55% 29.69 in 10.0 mi SE 24.2 mph - N/A   Clear
6:53 PM 37.0 °F 26.2 °F 28.0 °F 70% 29.68 in 10.0 mi SE 21.9 mph - N/A   Clear
7:53 PM 34.0 °F 23.4 °F 26.1 °F 73% 29.65 in 10.0 mi SE 17.3 mph - N/A   Clear
8:53 PM 34.0 °F 24.2 °F 24.1 °F 67% 29.62 in 10.0 mi SE 15.0 mph - N/A   Partly Cloudy
9:53 PM 39.0 °F 28.8 °F 27.0 °F 62% 29.57 in 10.0 mi SSE 21.9 mph 27.6 mph N/A   Clear
10:53 PM 37.9 °F 28.5 °F 28.9 °F 70% 29.56 in 10.0 mi SSE 17.3 mph 25.3 mph 0.00 in Rain Light Rain
11:53 PM 37.9 °F 27.9 °F 28.9 °F 70% 29.53 in 10.0 mi SE 19.6 mph 32.2 mph 0.00 in   Overcast